NOAA 16 DEB

Satellite information

Favourite Embed

Satellite Type and Status

DEBRISIN ORBIT

Key statistics

Satellite NOAA 16 DEB at a glance.

Uptime

9162

Days in orbit

Revolutions

≈ 14.3

Per day

Orbit

SSO

Sun Synchronous Orbit

Inclination

98.6

Latest

Satellite identification and parameters

Extended collection of information and parameters for NOAA 16 DEB.

Object identification

Identified? True

Debris? True

Object name: NOAA 16 DEB

International designator: 2000-055NT

Object number (NORAD): 41654

Object ID (CCSDS): 41654

Country: UNITED STATES OF AMERICA (US)

Current information (Y/N): Y

RCS size: SMALL

Orbital parameters

Period: 100.909 minutes

Inclination: 98.6399 deg

SMA: 7179.816 km

Apoapsis: 830.437 km

Periapsis: 772.926 km

RAAN: 342.9359 deg

Eccentricy: 0.00400507

Argument of periapsis: 131.1905 deg

Mean anomaly: 229.2741 deg

Mean motion: 14.27028836 rev/day

Mean motion (dot): 0.0000613 rev/day2

B* drag term: 0.0025128707 1/REarth

Two-line elements (TLE)

Creation date: Oct. 21, 2025, 6:24 p.m.

Reference frame: TEME

Reference center: EARTH

Epoch: Oct. 21, 2025, 8:32 a.m. UTC

TLE line 0: 0 NOAA 16 DEB

TLE line 1: 1 41654U 00055NT 25294.35620376 .00006130 00000-0 25129-2 0 9995

TLE line 2: 2 41654 98.6399 342.9359 0040051 131.1905 229.2741 14.27028836491205

Live tracking on map

Real-time ground track for satellite NOAA 16 DEB.

In-orbit conjunctions

A list of the most updated potential collisions computed for object NOAA 16 DEB.

Target Orbit TCA Probability of collision Miss distance Type
CZ-6A R/B SSO 2024-09-14 05:31:01 0.001368466 264.0 (m) ROCKET BODY
REX 2 SSO 2024-05-29 02:13:53 0.0001609564 330.0 (m) PAYLOAD

Associated space launch

The NOAA K, L and M POES satellites begin the fifth generation of improved environmental monitoring in support of NOAA missions. The instrument payload has significant improvements and additions/deletions. The instrument changes have effected the spacecraft subsystems and data formats.

NOAA 16 DEB was lifted into orbit during the mission ‘Titan II SLV | NOAA 16’, on board a Titan II SLV space rocket.

The launch took place on Sept. 21, 2000, 10:22 a.m. from Space Launch Complex 4W.

For more information about the launch, click the button.

Launch to space Titan II SLV | NOAA 16
Titan II SLV | NOAA 16

Agency: N/A

Status: Launch Successful

Launch date: Sept. 21, 2000, 10:22 a.m. UTC

Rocket: Titan II SLV

Launch pad: Space Launch Complex 4W

Location: Vandenberg SFB, CA, USA

...

Latest news about this satellite

There are no fresh news available about this satellite. Check back as we update our databases every day.


Newsletter sign-up

Weekly statistics, charts and insights to help you stay on top of the space industry.